Probability
0 0 0 0 0 0 0 0 0 0 0 0 0 0 0 0 0 0 0 0 0 0 3 3 0 3 6 3 3 3 0 0 0 0 0 0 0 0 0 0 0 0 0
0 0 0 0 0 0 0 0 0 0 0 0 0 0 0 0 0 0 0 0 0 0 0 3 0 0 3 3 0 0 0 0 0 0 0 3 0 0 0 0 0 0 0
0 0 0 0 0 0 0 0 0 0 0 0 0 0 0 0 0 0 0 0 0 0 0 0 0 0 0 3 3 0 0 0 0 0 0 0 0 0 0 0 0 0 0
0 0 0 0 0 0 0 0 0 0 0 0 0 0 0 0 0 0 0 0 0 0 0 0 0 0 0 0 0 0 0 0 0 0 0 0 0 0 0 0 0 0 0
0 0 0 0 0 0 0 0 0 0 0 0 0 0 0 0 0 0 0 0 0 0 0 0 0 0 0 0 0 0 0 0 0 0 0 0 0 0 0 0 0 0 0
0 0 0 0 0 0 0 0 0 0 0 0 0 0 0 0 0 0 0 0 0 0 0 0 0 0 0 0 0 0 0 0 0 0 0 0 0 0 0 0 0 0 0
0 0 0 0 0 0 0 0 0 0 0 0 0 0 0 0 0 0 0 0 0 0 0 0 0 0 0 0 0 0 0 0 0 0 0 0 0 0 0 0 0 0 0
0 0 0 0 0 0 0 0 0 0 0 0 0 0 0 0 0 0 0 0 0 0 0 0 0 0 0 0 0 0 0 0 0 0 0 0 0 0 0 0 0 0 0
0 0 0 0 0 0 0 0 0 0 0 0 0 0 0 0 0 0 0 0 0 0 0 0 0 0 0 0 0 0 0 0 0 0 0 0 0 0 0 0 0 0 0
0 0 0 0 0 0 0 0 0 0 0 0 0 0 0 0 0 0 0 0 0 0 0 0 0 0 0 0 0 0 0 0 0 0 0 0 0 0 0 0 0 0 0
0 0 0 0 0 0 0 0 0 0 0 0 0 0 0 0 0 0 0 0 0 0 0 0 0 0 0 0 0 0 0 0 0 0 0 0 0 0 0 0 0 0 0
0 0 0 0 0 0 0 0 0 0 0 0 0 0 0 0 0 0 0 0 0 0 0 0 0 0 0 0 0 0 0 0 0 0 0 0 0 0 0 0 0 0 0
0 0 0 0 0 0 0 0 0 0 0 0 0 0 0 0 0 0 0 0 0 0 0 0 0 0 0 0 0 0 0 0 0 0 0 0 0 0 0 0 0 0 0
0 0 0 0 0 0 0 0 0 0 0 0 0 0 0 0 0 0 0 0 0 0 0 0 0 0 0 0 0 0 0 0 0 0 0 0 0 0 0 0 0 0 0
0 0 0 0 0 0 0 0 0 0 0 0 0 0 0 0 0 0 0 0 0 0 0 0 0 0 0 0 0 0 0 0 0 0 0 0 0 0 0 0 0 0 0
0 0 0 0 0 0 0 0 0 0 0 0 0 0 0 0 0 0 0 0 0 0 0 0 0 0 0 0 0 0 0 0 0 0 0 0 0 0 0 0 0 0 0
0 0 0 0 0 0 0 0 0 0 0 0 0 0 0 0 0 0 0 0 0 0 0 0 0 0 0 0 0 0 0 0 0 0 0 0 0 0 0 0 0 0 0
0 0 0 0 0 0 0 0 0 0 0 0 0 0 0 0 0 0 0 0 0 0 0 0 0 0 0 0 0 0 0 0 0 0 0 0 0 0 0 0 0 0 0
0 0 0 0 0 0 0 0 0 0 0 0 0 0 0 0 0 0 0 0 0 0 0 0 0 0 0 0 0 0 0 0 0 0 0 0 0 0 0 0 0 0 0
0 0 0 0 0 0 0 0 0 0 0 0 0 0 0 0 0 0 0 0 0 0 0 0 0 0 0 0 0 0 0 0 0 0 0 0 0 0 0 0 0 0 0
0 0 0 0 0 0 0 0 0 0 0 0 0 0 0 0 0 0 0 0 0 0 0 0 0 0 0 0 0 0 0 0 0 0 0 0 0 0 0 0 0 0 0
0 0 0 0 0 0 0 0 0 0 0 0 0 0 0 0 0 0 0 0 0 0 0 0 0 0 0 0 0 0 0 0 0 0 0 0 0 0 0 0 0 0 0
0 0 0 0 0 0 0 0 0 0 0 0 0 0 0 0 0 0 0 0 0 0 0 0 0 0 0 0 0 0 0 0 0 0 0 0 0 0 0 0 0 0 0
0 0 0 0 0 0 0 0 0 0 0 0 0 0 0 0 0 0 0 0 0 0 0 0 0 0 0 0 0 0 0 0 0 0 0 0 0 0 0 0 0 0 0
0 0 0 0 0 0 0 0 0 0 0 0 0 0 0 0 0 0 0 0 0 0 0 0 0 0 0 0 0 0 0 0 0 0 0 0 0 0 0 0 0 0 0
0 0 0 0 0 0 0 0 0 0 0 0 0 0 0 0 0 0 0 0 0 0 0 0 0 0 0 0 0 0 0 0 0 0 0 0 0 0 0 0 0 0 0
Height
5777 5777 5778 5779 5780 5781 5781 5781 5782 5783 5784 5784 5784 5785 5786 5788 5790 5791 5793 5795 5796 5797 5799 5800 5801 5802 5804 5805 5806 5807 5808 5809 5810 5811 5812 5813 5814 5815 5816 5817 5818 5819 5819
5768 5769 5770 5771 5772 5772 5773 5773 5774 5775 5776 5776 5777 5778 5779 5781 5782 5784 5786 5787 5789 5791 5792 5793 5795 5796 5797 5799 5800 5801 5802 5804 5805 5806 5807 5808 5809 5811 5812 5812 5813 5814 5815
5759 5760 5761 5762 5763 5763 5764 5765 5766 5766 5767 5768 5769 5770 5771 5773 5775 5776 5778 5780 5781 5783 5785 5786 5788 5789 5790 5792 5793 5794 5796 5797 5798 5800 5801 5803 5804 5805 5807 5808 5809 5810 5811
5749 5750 5751 5752 5753 5754 5755 5756 5757 5758 5758 5759 5760 5761 5763 5764 5766 5767 5769 5771 5773 5775 5776 5778 5780 5781 5783 5784 5786 5787 5789 5790 5791 5793 5795 5796 5798 5799 5801 5802 5804 5805 5806
5738 5740 5741 5742 5743 5744 5745 5746 5747 5748 5749 5750 5751 5752 5753 5755 5757 5758 5760 5762 5764 5766 5768 5769 5771 5773 5775 5776 5778 5779 5781 5782 5784 5786 5788 5789 5791 5793 5795 5796 5797 5799 5800
5727 5729 5730 5731 5732 5733 5734 5735 5736 5737 5739 5740 5741 5742 5743 5745 5747 5748 5750 5752 5754 5756 5758 5760 5762 5764 5766 5768 5769 5771 5773 5774 5776 5778 5780 5782 5784 5786 5788 5789 5791 5792 5794
5715 5717 5718 5719 5720 5721 5722 5723 5725 5726 5727 5729 5730 5732 5733 5734 5736 5738 5740 5742 5744 5746 5748 5750 5752 5754 5757 5759 5760 5762 5764 5766 5768 5770 5772 5774 5776 5778 5780 5781 5783 5785 5787
5702 5704 5706 5707 5708 5709 5710 5711 5712 5714 5715 5716 5718 5720 5722 5724 5725 5727 5729 5731 5733 5735 5737 5739 5742 5744 5747 5749 5751 5753 5755 5757 5759 5761 5763 5765 5767 5769 5771 5773 5775 5777 5779
5689 5691 5692 5694 5695 5696 5697 5698 5699 5700 5702 5703 5705 5707 5709 5712 5714 5716 5717 5719 5721 5724 5726 5728 5731 5733 5736 5738 5740 5743 5745 5747 5749 5751 5753 5755 5758 5760 5762 5764 5767 5769 5771
5675 5677 5678 5680 5681 5682 5683 5684 5685 5687 5688 5690 5691 5693 5696 5698 5701 5704 5707 5707 5709 5712 5714 5716 5718 5721 5724 5726 5729 5731 5734 5736 5738 5740 5743 5745 5747 5750 5752 5755 5757 5759 5762
5660 5661 5663 5664 5666 5667 5668 5669 5670 5672 5674 5675 5677 5679 5681 5683 5686 5689 5693 5695 5697 5698 5701 5703 5706 5708 5711 5714 5716 5719 5722 5724 5727 5729 5732 5734 5736 5739 5742 5744 5747 5749 5751
5644 5646 5647 5649 5650 5651 5653 5654 5655 5657 5659 5660 5662 5664 5666 5669 5671 5674 5677 5680 5683 5685 5687 5689 5692 5694 5697 5700 5703 5706 5708 5711 5714 5717 5719 5722 5725 5727 5731 5734 5736 5739 5741
5628 5630 5631 5633 5634 5635 5637 5638 5639 5641 5643 5645 5647 5649 5651 5653 5656 5659 5662 5665 5668 5671 5673 5675 5677 5679 5682 5685 5688 5691 5694 5697 5700 5703 5706 5709 5712 5715 5718 5722 5725 5727 5730
5611 5613 5614 5616 5617 5619 5620 5622 5624 5625 5627 5629 5631 5633 5635 5637 5640 5642 5645 5648 5651 5655 5657 5659 5661 5663 5666 5670 5673 5676 5679 5683 5686 5689 5692 5696 5699 5702 5705 5709 5712 5715 5718
5594 5596 5597 5599 5600 5602 5604 5605 5607 5609 5611 5613 5615 5617 5619 5621 5623 5625 5628 5631 5635 5638 5642 5644 5645 5648 5650 5653 5656 5660 5663 5667 5671 5674 5678 5682 5685 5688 5692 5695 5699 5702 5705
5577 5578 5580 5581 5583 5584 5586 5588 5590 5592 5594 5596 5598 5600 5602 5604 5606 5608 5611 5613 5616 5620 5625 5628 5629 5631 5634 5637 5639 5643 5646 5651 5655 5658 5662 5666 5670 5674 5678 5681 5685 5688 5691
5559 5560 5562 5563 5565 5567 5568 5570 5572 5575 5577 5579 5581 5583 5585 5587 5589 5591 5593 5595 5598 5601 5606 5610 5612 5614 5616 5619 5622 5625 5629 5633 5638 5642 5646 5650 5654 5658 5662 5666 5670 5673 5676
5542 5543 5544 5545 5547 5549 5551 5552 5554 5557 5559 5561 5563 5565 5567 5569 5571 5573 5575 5578 5581 5583 5587 5591 5594 5596 5599 5602 5605 5608 5612 5616 5621 5625 5629 5633 5638 5641 5646 5650 5654 5658 5661
5525 5526 5527 5528 5530 5532 5533 5535 5537 5539 5541 5543 5544 5547 5549 5551 5553 5555 5558 5561 5563 5566 5569 5572 5576 5579 5582 5585 5588 5591 5595 5600 5604 5608 5612 5616 5620 5624 5629 5633 5637 5641 5645
5508 5509 5510 5511 5513 5514 5516 5517 5519 5520 5522 5524 5526 5528 5531 5533 5536 5538 5541 5543 5546 5548 5551 5555 5558 5561 5564 5568 5571 5575 5579 5583 5587 5591 5595 5599 5603 5607 5612 5616 5621 5625 5629
5491 5492 5493 5494 5495 5497 5498 5499 5501 5502 5504 5506 5508 5510 5513 5515 5518 5520 5523 5525 5528 5531 5533 5537 5541 5544 5548 5551 5554 5558 5561 5566 5570 5574 5578 5583 5587 5591 5594 5599 5603 5607 5611
5475 5476 5477 5477 5478 5479 5480 5481 5482 5484 5486 5488 5491 5493 5495 5498 5500 5502 5505 5507 5510 5513 5516 5520 5524 5528 5531 5535 5538 5540 5544 5549 5555 5559 5561 5565 5569 5573 5577 5581 5585 5590 5594
5459 5459 5460 5460 5461 5462 5463 5463 5464 5466 5468 5470 5473 5475 5477 5480 5482 5485 5487 5489 5492 5495 5499 5503 5507 5511 5515 5519 5522 5525 5527 5531 5537 5540 5543 5549 5552 5556 5560 5563 5568 5572 5576
5443 5443 5443 5444 5444 5445 5445 5446 5447 5448 5451 5453 5455 5458 5460 5462 5464 5467 5469 5472 5475 5479 5483 5487 5491 5495 5497 5500 5504 5508 5510 5514 5520 5523 5527 5532 5536 5539 5543 5546 5550 5554 5558
5428 5428 5427 5428 5428 5428 5429 5429 5430 5432 5434 5436 5438 5440 5443 5445 5448 5450 5452 5456 5459 5462 5465 5469 5473 5476 5480 5483 5486 5490 5493 5497 5503 5507 5510 5514 5519 5522 5526 5530 5532 5535 5539
5414 5413 5412 5412 5412 5413 5413 5414 5414 5416 5419 5421 5423 5424 5427 5429 5430 5431 5434 5438 5442 5445 5448 5452 5456 5459 5462 5465 5469 5472 5476 5479 5484 5490 5493 5496 5501 5503 5508 5513 5515 5518 5521
Wind_Speed
36 36 36 36 35 35 34 34 34 33 32 32 32 32 31 31 30 31 30 30 29 29 29 28 28 27 27 27 26 25 25 23 22 22 21 21 20 20 19 19 20 20 19
38 38 38 38 37 37 37 36 36 35 35 35 34 34 33 33 33 33 33 32 32 31 31 30 30 30 29 29 28 27 26 25 24 24 23 23 22 22 21 20 21 21 21
40 40 40 39 39 39 38 38 38 38 37 37 37 37 36 36 36 36 36 35 34 34 33 33 33 32 31 31 30 29 28 27 26 26 25 25 24 24 23 23 23 23 22
42 42 42 41 41 41 40 40 40 40 39 39 38 38 38 38 37 37 38 38 37 36 36 35 35 35 34 33 32 31 30 29 28 28 27 27 27 26 25 25 25 24 24
44 44 44 43 43 43 42 42 42 42 41 41 41 40 41 40 39 39 39 39 39 38 38 37 37 37 36 35 34 33 32 31 31 31 30 29 29 28 28 27 27 26 26
46 46 46 45 45 45 45 44 44 44 44 44 43 42 42 42 42 41 41 40 40 40 40 39 39 39 38 37 37 36 35 34 34 33 33 32 31 30 30 30 29 28 28
48 47 47 47 47 47 46 46 46 46 46 46 45 45 44 44 43 42 42 42 42 42 42 42 41 41 40 40 39 38 37 36 36 36 36 35 34 33 33 32 31 31 30
50 50 49 49 48 48 48 48 48 48 48 48 48 48 47 46 44 44 45 44 43 43 44 44 43 43 42 42 41 41 39 39 38 38 39 38 36 35 36 35 34 34 33
53 52 52 51 51 50 50 50 49 49 50 50 50 50 49 48 47 46 47 46 46 45 45 46 46 45 45 44 44 44 42 42 41 40 41 41 40 38 37 37 37 36 35
55 54 54 54 53 53 53 52 52 50 50 50 51 51 52 51 50 49 49 48 48 48 47 48 49 48 47 47 46 46 45 44 43 42 42 42 43 41 39 39 39 39 38
56 56 56 56 55 55 55 55 54 53 52 51 52 52 52 53 53 52 52 51 50 50 50 50 50 50 50 49 49 48 48 47 46 45 44 44 44 44 43 41 41 40 40
58 58 58 57 56 56 56 56 56 55 54 53 53 54 53 53 53 54 54 54 53 52 52 52 52 53 53 52 52 52 51 49 49 48 48 46 46 46 46 44 44 43 42
59 59 59 58 58 57 57 57 56 56 55 54 54 54 54 54 54 55 55 55 55 55 54 54 54 55 55 55 55 54 54 53 51 51 50 49 48 47 48 47 46 46 46
59 59 59 60 59 59 58 58 58 56 56 56 56 55 56 55 56 56 56 56 56 56 56 56 56 56 56 56 56 56 56 55 54 53 52 51 50 50 49 49 49 49 48
60 60 61 61 61 60 60 60 60 59 59 58 57 57 57 56 56 57 57 57 57 57 57 57 57 58 58 58 57 57 57 56 56 55 54 54 52 52 51 51 51 51 51
60 61 61 61 61 61 61 62 61 61 61 60 59 59 59 59 58 57 57 58 58 59 59 59 59 59 59 59 59 60 59 59 58 57 57 56 56 55 54 53 53 53 52
60 59 60 60 61 61 61 61 61 61 61 61 61 61 60 60 60 59 59 59 60 60 60 59 60 60 60 60 60 60 60 60 60 59 59 59 58 57 57 56 56 55 54
58 58 58 59 59 60 60 60 60 60 61 61 62 62 61 62 61 61 61 60 60 60 60 59 59 60 59 59 59 59 60 60 60 60 60 60 60 59 59 59 58 57 56
57 57 57 58 58 59 59 60 60 60 60 60 61 61 61 61 61 60 60 60 59 59 59 59 57 58 58 58 59 59 59 59 60 60 60 60 61 60 60 60 60 59 58
55 56 57 57 58 58 59 59 59 60 60 60 60 60 60 60 60 60 60 60 59 59 58 57 56 56 57 57 58 58 59 59 60 60 60 60 61 61 61 61 61 61 60
53 54 55 56 57 57 58 59 59 59 59 60 60 60 59 59 60 60 59 59 60 60 59 57 57 56 55 56 57 58 58 59 59 60 60 61 60 61 61 61 61 61 61
52 53 54 55 55 56 57 58 59 60 60 59 59 59 59 59 59 60 59 60 60 60 60 58 57 56 55 55 56 57 57 58 58 59 60 60 61 61 61 62 61 61 61
51 51 52 54 54 55 56 57 58 58 58 58 57 58 58 59 59 59 59 60 60 61 60 60 58 57 56 55 57 57 58 58 58 59 59 59 59 60 60 61 61 62 63
49 50 51 52 53 54 55 55 55 54 55 55 55 56 56 57 58 58 59 59 59 60 60 59 59 58 57 56 57 58 59 60 60 59 59 58 59 60 60 60 62 63 63
47 48 49 50 51 52 52 52 52 52 52 53 53 54 54 55 56 57 57 58 58 59 59 59 60 59 58 59 59 60 60 60 60 60 60 60 60 61 61 61 62 63 64
44 45 46 47 48 48 48 49 50 51 51 51 51 52 52 53 54 56 57 57 58 59 59 59 60 60 59 60 60 61 61 60 60 60 61 61 61 62 62 62 62 63 64
Wind_Direction
257 258 258 259 260 260 261 260 260 260 260 260 259 259 257 254 253 254 253 253 254 255 255 254 253 253 253 253 253 252 250 251 252 249 247 244 244 243 242 243 243 243 242
257 257 258 258 260 261 262 261 261 260 260 260 259 258 256 254 253 254 253 253 253 254 254 254 253 253 253 253 253 252 251 251 251 248 247 244 244 243 242 244 245 245 245
257 257 258 259 260 260 260 260 261 261 260 260 260 258 255 253 253 254 254 253 253 253 254 253 253 253 253 253 252 251 251 251 249 248 247 245 245 244 244 245 246 246 246
258 258 259 259 260 261 261 261 261 261 260 260 260 259 256 254 255 256 255 254 253 253 253 253 252 252 252 252 252 251 252 251 248 247 247 246 246 246 247 248 247 247 247
258 258 259 259 260 261 261 260 261 260 260 260 260 259 256 256 256 256 255 254 253 252 252 252 252 251 251 251 251 251 251 251 249 246 247 247 246 247 248 249 248 248 248
258 258 259 259 260 260 260 260 260 260 260 259 259 258 257 256 256 255 254 254 254 253 253 252 252 251 250 250 251 250 250 250 249 247 246 247 248 248 248 249 249 249 249
258 258 258 259 260 261 261 261 260 260 260 259 259 259 258 257 256 254 254 254 254 254 253 252 251 251 251 250 250 250 249 250 249 247 247 247 248 248 248 248 248 249 249
258 258 259 259 260 261 261 261 260 260 259 259 258 258 258 258 258 254 254 254 253 253 253 252 251 251 251 250 250 249 249 250 249 248 248 247 247 248 248 248 248 248 249
258 259 259 259 259 260 261 261 261 261 260 259 258 258 257 257 256 254 254 254 253 253 252 252 251 250 250 250 250 250 249 249 250 249 249 248 247 248 248 248 247 247 248
257 258 259 259 259 260 261 261 260 261 260 259 258 258 257 256 256 254 254 254 253 252 252 252 252 251 250 250 250 250 250 250 250 250 250 249 248 247 248 247 247 248 248
258 258 258 259 260 260 260 260 260 259 260 260 259 258 258 257 256 256 255 254 253 252 253 253 252 251 250 250 250 250 250 250 250 250 250 249 249 248 247 247 248 249 249
259 258 258 259 259 259 260 259 259 260 259 260 259 259 258 257 257 256 256 256 254 253 252 252 252 252 251 250 251 251 251 250 249 250 250 250 249 248 248 248 248 250 250
259 259 258 258 259 259 259 258 259 258 258 259 259 259 258 258 258 257 256 256 255 254 254 253 252 252 251 251 251 251 250 250 250 250 250 249 249 249 248 248 249 250 251
258 258 258 258 258 258 258 258 258 258 258 259 258 258 258 258 258 258 257 257 255 254 254 253 253 252 251 251 251 251 250 250 250 250 249 249 248 248 249 249 249 250 250
258 258 258 258 258 258 258 258 258 258 259 259 259 258 258 258 258 257 257 257 256 255 254 253 254 253 252 252 251 251 250 250 249 249 248 248 248 249 249 249 250 250 250
259 259 259 259 258 258 258 258 258 259 259 259 259 258 258 258 257 257 257 257 256 255 254 254 255 254 253 252 252 251 250 250 249 248 248 248 248 249 249 249 250 250 251
260 260 259 259 258 258 258 258 258 258 258 259 259 259 259 258 258 257 257 257 257 256 256 255 255 254 253 252 252 251 251 249 248 248 248 248 249 250 249 249 250 250 251
261 260 260 259 258 258 258 258 258 259 259 259 259 259 259 259 258 257 257 256 257 256 256 256 255 254 253 252 251 250 250 249 248 248 249 249 250 250 249 249 250 250 250
261 260 259 258 258 258 258 258 258 258 259 259 259 259 258 258 257 257 256 256 256 255 256 255 254 253 252 252 251 250 249 248 248 248 249 249 249 250 249 249 250 250 250
261 260 259 259 259 258 258 259 259 259 259 259 258 258 257 256 256 256 256 256 255 255 254 254 253 252 251 251 250 249 249 248 248 248 249 249 249 249 249 249 250 250 250
262 261 260 259 259 259 259 259 259 259 258 258 257 256 256 256 256 256 256 256 255 253 252 252 252 250 250 251 250 249 248 247 247 248 249 249 250 250 249 249 249 249 250
263 262 261 260 260 260 260 260 260 259 258 257 257 256 255 255 256 256 256 255 254 253 252 252 251 250 250 251 249 248 248 247 247 248 248 249 250 250 249 249 249 249 249
264 263 263 262 262 261 261 261 260 259 258 257 256 255 255 255 255 255 255 254 253 252 252 252 251 250 251 251 250 249 249 248 247 247 249 249 250 249 249 249 249 249 249
266 264 264 264 263 262 262 261 259 259 258 257 256 256 256 255 255 255 254 254 253 251 251 252 250 251 251 252 252 251 251 249 248 249 249 249 249 249 250 250 250 250 249
268 266 266 265 264 263 262 260 259 258 258 257 256 255 256 256 256 255 254 253 252 251 252 251 250 251 252 253 252 251 251 250 249 249 250 250 250 250 250 250 251 250 250
269 269 268 266 264 262 261 260 259 258 257 256 256 257 257 257 256 255 254 253 252 251 251 250 250 251 252 252 252 252 251 251 250 249 250 250 251 251 251 251 252 252 251